Simultaneous Nadir Overpasses (SNOs) Predictions

Prediction of SNOs between NOAA-21 and NOAA-19 Satellite Orbit:

Table of predicted SNOs for the next 14.0 days since TLE Epoch: 11/9/2024
Index Date (NOAA-21) Time (NOAA-21) Lat,Lon (NOAA-21) SZA (NOAA-21 ) Date (NOAA-19) Time (NOAA-19) Lat,Lon (NOAA-19) SZA (NOAA-19 ) Distance(km) Time Diff (sec)
1 11/19/2024 22:52:09 71.68,-168.91 91.33 11/19/2024 22:51:02 71.65,-171.48 91.36 90.03 67
2 11/19/2024 23:43:01 -72.07, -2.34 88.26 11/19/2024 23:41:49 -72.05, -3.45 88.26 38.03 72
3 11/20/2024 00:33:52 72.34, 164.46 92.03 11/20/2024 00:32:45 72.37, 164.45 92.07 3.43 67
4 11/20/2024 01:24:37 -72.38, -28.30 87.93 11/20/2024 01:23:40 -72.36, -28.30 87.94 1.94 57
5 11/20/2024 02:15:23 72.39, 138.99 92.09 11/20/2024 02:14:42 72.38, 138.98 92.09 0.86 41
6 11/20/2024 03:06:08 -72.42, -53.76 87.87 11/20/2024 03:05:36 -72.42, -53.67 87.87 3.26 32
7 11/20/2024 03:56:54 72.43, 113.52 92.16 11/20/2024 03:56:38 72.44, 113.62 92.16 3.15 16
8 11/20/2024 04:47:38 -72.42, -79.13 87.86 11/20/2024 04:47:33 -72.43, -79.14 87.85 0.96 5
9 11/20/2024 05:38:24 72.43, 88.16 92.17 11/20/2024 05:38:35 72.45, 88.15 92.19 2.10 11
10 11/20/2024 06:29:09 -72.46,-104.60 87.79 11/20/2024 06:29:30 -72.43,-104.61 87.82 3.29 21
11 11/20/2024 07:19:55 72.47, 62.69 92.23 11/20/2024 07:20:32 72.45, 62.68 92.21 2.17 37
12 11/20/2024 08:10:39 -72.51,-130.06 87.73 11/20/2024 08:11:25 -72.49,-129.97 87.75 3.63 46
13 11/20/2024 09:01:25 72.52, 37.22 92.30 11/20/2024 09:02:27 72.51, 37.31 92.28 3.21 62
14 11/20/2024 09:52:09 -72.50,-155.43 87.72 11/20/2024 09:53:22 -72.50,-155.44 87.73 0.59 73
15 11/20/2024 10:43:06 73.07, 10.69 92.89 11/20/2024 10:44:14 73.02, 12.93 92.79 72.81 68



Historial Predications of SNOs between NOAA-21 and NOAA-19
